| time (UTC) | temp F | wind direction | speed MPH | gust MPH | rain 1hr in | rain 24hr in | rain mn in | humidity % | barometer mb |
| 20260906003535 | 72 | 129 | 8.0 | 9.0 | 0.00 | 0.09 | 0.09 | 95 | 1010.5 |
| 20260906002530 | 72 | 132 | 8.0 | 9.0 | 0.00 | 0.09 | 0.09 | 95 | 1010.4 |
| 20260906001526 | 72 | 132 | 8.0 | 9.0 | 0.00 | 0.09 | 0.09 | 95 | 1010.2 |
| 20260906000521 | 73 | 137 | 8.0 | 9.0 | 0.02 | 0.09 | 0.09 | 95 | 1010.3 |
| 20260905235536 | 73 | 132 | 8.0 | 9.0 | 0.09 | 0.09 | 0.09 | 94 | 1010.1 |
| 20260905234531 | 73 | 139 | 8.0 | 10.0 | 0.09 | 0.09 | 0.09 | 94 | 1010.4 |
| 20260905233526 | 74 | 138 | 9.0 | 10.0 | 0.09 | 0.09 | 0.09 | 94 | 1011.0 |
| 20260905232521 | 74 | 132 | 8.0 | 9.0 | 0.09 | 0.09 | 0.09 | 93 | 1011.4 |
| 20260905231516 | 75 | 135 | 8.0 | 10.0 | 0.08 | 0.08 | 0.08 | 93 | 1011.4 |
| 20260905230532 | 76 | 131 | 6.0 | 8.0 | 0.07 | 0.07 | 0.07 | 87 | 1011.6 |
| 20260905225527 | 82 | 118 | 4.0 | 6.0 | 0.00 | 0.00 | 0.00 | 77 | 1011.5 |
| 20260905224522 | 84 | 136 | 6.0 | 8.0 | 0.00 | 0.00 | 0.00 | 86 | 1010.6 |
| 20260905223517 | 84 | 142 | 8.0 | 11.0 | 0.00 | 0.00 | 0.00 | 85 | 1009.5 |
| 20260905222532 | 84 | 146 | 9.0 | 13.0 | 0.00 | 0.00 | 0.00 | 84 | 1009.3 |
| 20260905221527 | 85 | 149 | 9.0 | 13.0 | 0.00 | 0.00 | 0.00 | 84 | 1009.7 |
| 20260905220522 | 85 | 145 | 8.0 | 11.0 | 0.00 | 0.00 | 0.00 | 83 | 1009.2 |
| 20260905215517 | 86 | 148 | 8.0 | 11.0 | 0.00 | 0.00 | 0.00 | 82 | 1008.9 |
| 20260905214532 | 86 | 150 | 8.0 | 11.0 | 0.00 | 0.00 | 0.00 | 81 | 1009.0 |
| 20260905213527 | 87 | 155 | 9.0 | 15.0 | 0.00 | 0.00 | 0.00 | 79 | 1009.0 |
| 20260905212522 | 87 | 152 | 9.0 | 13.0 | 0.00 | 0.00 | 0.00 | 79 | 1008.9 |
| 20260905211517 | 88 | 152 | 8.0 | 13.0 | 0.00 | 0.00 | 0.00 | 78 | 1009.1 |
| 20260905210532 | 87 | 153 | 7.0 | 11.0 | 0.00 | 0.00 | 0.00 | 79 | 1009.0 |
| 20260905205527 | 88 | 157 | 8.0 | 13.0 | 0.00 | 0.00 | 0.00 | 78 | 1008.9 |
| 20260905204522 | 88 | 151 | 9.0 | 14.0 | 0.00 | 0.00 | 0.00 | 78 | 1008.9 |
| 20260905203517 | 88 | 157 | 8.0 | 12.0 | 0.00 | 0.00 | 0.00 | 78 | 1008.8 |
| 20260905202532 | 89 | 184 | 8.0 | 12.0 | 0.00 | 0.00 | 0.00 | 76 | 1008.7 |
| 20260905201528 | 89 | 187 | 7.0 | 13.0 | 0.00 | 0.00 | 0.00 | 76 | 1009.0 |
| 20260905200523 | 89 | 196 | 7.0 | 9.0 | 0.00 | 0.00 | 0.00 | 75 | 1009.0 |
| 20260905195518 | 89 | 191 | 6.0 | 9.0 | 0.00 | 0.00 | 0.00 | 75 | 1009.0 |
| 20260905194533 | 89 | 191 | 6.0 | 9.0 | 0.00 | 0.00 | 0.00 | 75 | 1009.0 |
| 20260905193529 | 90 | 188 | 7.0 | 15.0 | 0.00 | 0.00 | 0.00 | 73 | 1009.2 |
| 20260905192524 | 89 | 188 | 6.0 | 10.0 | 0.00 | 0.00 | 0.00 | 73 | 1009.2 |
| 20260905191519 | 89 | 184 | 8.0 | 12.0 | 0.00 | 0.00 | 0.00 | 74 | 1009.5 |
| 20260905190534 | 90 | 186 | 8.0 | 13.0 | 0.00 | 0.00 | 0.00 | 72 | 1009.9 |
| 20260905185529 | 90 | 194 | 7.0 | 10.0 | 0.00 | 0.00 | 0.00 | 73 | 1010.0 |
| 20260905184525 | 90 | 192 | 6.0 | 11.0 | 0.00 | 0.00 | 0.00 | 71 | 1010.2 |
| 20260905183520 | 90 | 193 | 6.0 | 9.0 | 0.00 | 0.00 | 0.00 | 71 | 1010.4 |
| 20260905182535 | 92 | 187 | 7.0 | 13.0 | 0.00 | 0.00 | 0.00 | 68 | 1010.4 |
| 20260905181530 | 91 | 187 | 8.0 | 10.0 | 0.00 | 0.00 | 0.00 | 69 | 1010.5 |
| 20260905180525 | 91 | 194 | 6.0 | 9.0 | 0.00 | 0.00 | 0.00 | 69 | 1010.6 |
| 20260905175521 | 90 | 193 | 7.0 | 12.0 | 0.00 | 0.00 | 0.00 | 71 | 1010.8 |
| 20260905174516 | 90 | 180 | 7.0 | 11.0 | 0.00 | 0.00 | 0.00 | 71 | 1010.9 |
| 20260905173531 | 90 | 186 | 8.0 | 11.0 | 0.00 | 0.00 | 0.00 | 70 | 1011.0 |
| 20260905172526 | 90 | 154 | 9.0 | 17.0 | 0.00 | 0.00 | 0.00 | 71 | 1011.1 |
| 20260905171522 | 91 | 155 | 7.0 | 13.0 | 0.00 | 0.00 | 0.00 | 70 | 1011.2 |
| 20260905170517 | 92 | 155 | 7.0 | 10.0 | 0.00 | 0.00 | 0.00 | 69 | 1011.3 |
| 20260905165532 | 91 | 156 | 9.0 | 15.0 | 0.00 | 0.00 | 0.00 | 68 | 1011.4 |
| 20260905164527 | 92 | 156 | 7.0 | 11.0 | 0.00 | 0.00 | 0.00 | 70 | 1011.4 |
| 20260905163522 | 92 | 190 | 6.0 | 8.0 | 0.00 | 0.00 | 0.00 | 69 | 1011.6 |
| 20260905162517 | 91 | 184 | 8.0 | 11.0 | 0.00 | 0.00 | 0.00 | 70 | 1011.7 |
| 20260905161532 | 91 | 184 | 6.0 | 10.0 | 0.00 | 0.00 | 0.00 | 70 | 1012.0 |
| 20260905160527 | 92 | 189 | 5.0 | 10.0 | 0.00 | 0.00 | 0.00 | 68 | 1012.1 |
| 20260905155523 | 90 | 187 | 6.0 | 10.0 | 0.00 | 0.00 | 0.00 | 71 | 1012.1 |
| 20260905154518 | 91 | 188 | 5.0 | 8.0 | 0.00 | 0.00 | 0.00 | 68 | 1012.4 |
| 20260905153533 | 92 | 187 | 5.0 | 6.0 | 0.00 | 0.00 | 0.00 | 67 | 1012.4 |
| 20260905152528 | 90 | 186 | 4.0 | 7.0 | 0.00 | 0.00 | 0.00 | 70 | 1012.4 |
| 20260905151522 | 90 | 186 | 6.0 | 9.0 | 0.00 | 0.00 | 0.00 | 70 | 1012.6 |
| 20260905150517 | 90 | 197 | 6.0 | 7.0 | 0.00 | 0.00 | 0.00 | 70 | 1012.6 |
| 20260905145533 | 89 | 184 | 4.0 | 6.0 | 0.00 | 0.00 | 0.00 | 72 | 1012.7 |
| 20260905144527 | 88 | 158 | 6.0 | 9.0 | 0.00 | 0.00 | 0.00 | 74 | 1012.7 |
| 20260905143523 | 87 | 140 | 7.0 | 8.0 | 0.00 | 0.00 | 0.00 | 75 | 1012.8 |
| 20260905142518 | 86 | 147 | 6.0 | 8.0 | 0.00 | 0.00 | 0.00 | 77 | 1012.7 |
| 20260905141533 | 85 | 113 | 3.0 | 4.0 | 0.00 | 0.00 | 0.00 | 79 | 1012.8 |
| 20260905140528 | 85 | 95 | 4.0 | 5.0 | 0.00 | 0.00 | 0.00 | 79 | 1013.0 |
| 20260905135524 | 84 | 109 | 4.0 | 8.0 | 0.00 | 0.00 | 0.00 | 81 | 1012.9 |
| 20260905134518 | 84 | 113 | 5.0 | 9.0 | 0.00 | 0.00 | 0.00 | 82 | 1012.9 |
| 20260905133534 | 83 | 91 | 4.0 | 7.0 | 0.00 | 0.00 | 0.00 | 83 | 1012.9 |
| 20260905132529 | 83 | 75 | 4.0 | 7.0 | 0.00 | 0.00 | 0.00 | 83 | 1013.0 |
| 20260905131524 | 82 | 107 | 4.0 | 7.0 | 0.00 | 0.00 | 0.00 | 84 | 1013.0 |
| 20260905130519 | 82 | 93 | 4.0 | 7.0 | 0.00 | 0.00 | 0.00 | 87 | 1012.9 |
| 20260905125534 | 80 | 92 | 5.0 | 6.0 | 0.00 | 0.00 | 0.00 | 89 | 1013.1 |
| 20260905124529 | 80 | 88 | 5.0 | 6.0 | 0.00 | 0.00 | 0.00 | 91 | 1013.1 |
| 20260905123524 | 79 | 86 | 4.0 | 5.0 | 0.00 | 0.00 | 0.00 | 93 | 1013.0 |
| 20260905122519 | 78 | 100 | 4.0 | 6.0 | 0.00 | 0.00 | 0.00 | 94 | 1012.9 |
| 20260905121534 | 78 | 97 | 4.0 | 6.0 | 0.00 | 0.00 | 0.00 | 96 | 1013.0 |
| 20260905120529 | 78 | 90 | 4.0 | 6.0 | 0.00 | 0.00 | 0.00 | 97 | 1012.9 |
| 20260905115523 | 77 | 91 | 4.0 | 5.0 | 0.00 | 0.00 | 0.00 | 97 | 1012.9 |
| 20260905114519 | 77 | 98 | 4.0 | 5.0 | 0.00 | 0.00 | 0.00 | 97 | 1012.8 |
| 20260905113534 | 77 | 93 | 4.0 | 6.0 | 0.00 | 0.00 | 0.00 | 97 | 1012.6 |
| 20260905112529 | 77 | 98 | 5.0 | 6.0 | 0.00 | 0.00 | 0.00 | 97 | 1012.7 |
| 20260905111524 | 77 | 95 | 4.0 | 6.0 | 0.00 | 0.00 | 0.00 | 97 | 1012.5 |
| 20260905110519 | 77 | 101 | 5.0 | 6.0 | 0.00 | 0.00 | 0.00 | 97 | 1012.5 |
| 20260905105535 | 77 | 92 | 5.0 | 6.0 | 0.00 | 0.00 | 0.00 | 97 | 1012.6 |
| 20260905104530 | 77 | 96 | 4.0 | 6.0 | 0.00 | 0.00 | 0.00 | 97 | 1012.4 |
| 20260905103525 | 77 | 107 | 5.0 | 8.0 | 0.00 | 0.00 | 0.00 | 97 | 1012.3 |
| 20260905102521 | 77 | 99 | 5.0 | 7.0 | 0.00 | 0.00 | 0.00 | 97 | 1012.2 |
| 20260905101535 | 77 | 94 | 4.0 | 6.0 | 0.00 | 0.00 | 0.00 | 97 | 1012.3 |
| 20260905100531 | 77 | 99 | 4.0 | 7.0 | 0.00 | 0.00 | 0.00 | 97 | 1012.2 |
| 20260905095526 | 77 | 102 | 5.0 | 6.0 | 0.00 | 0.00 | 0.00 | 97 | 1012.3 |
| 20260905094521 | 77 | 103 | 5.0 | 9.0 | 0.00 | 0.00 | 0.00 | 97 | 1012.2 |
| 20260905093516 | 77 | 100 | 5.0 | 8.0 | 0.00 | 0.00 | 0.00 | 97 | 1012.2 |
| 20260905092532 | 76 | 91 | 5.0 | 9.0 | 0.00 | 0.00 | 0.00 | 96 | 1012.4 |
| 20260905091527 | 76 | 116 | 6.0 | 9.0 | 0.00 | 0.00 | 0.00 | 96 | 1012.4 |
| 20260905090522 | 76 | 111 | 6.0 | 10.0 | 0.00 | 0.00 | 0.00 | 96 | 1012.5 |
| 20260905085517 | 76 | 89 | 6.0 | 8.0 | 0.00 | 0.00 | 0.00 | 96 | 1012.5 |
| 20260905084533 | 76 | 83 | 6.0 | 9.0 | 0.00 | 0.00 | 0.00 | 96 | 1012.5 |
| 20260905083528 | 76 | 123 | 6.0 | 10.0 | 0.00 | 0.00 | 0.00 | 96 | 1012.5 |
| 20260905082523 | 76 | 91 | 4.0 | 6.0 | 0.00 | 0.00 | 0.00 | 96 | 1012.7 |
| 20260905081519 | 77 | 100 | 5.0 | 7.0 | 0.00 | 0.00 | 0.00 | 96 | 1012.8 |
| 20260905080534 | 77 | 67 | 7.0 | 9.0 | 0.00 | 0.00 | 0.00 | 95 | 1012.8 |
| 20260905075529 | 77 | 99 | 6.0 | 10.0 | 0.00 | 0.00 | 0.00 | 95 | 1012.7 |
| 20260905074524 | 77 | 96 | 5.0 | 9.0 | 0.00 | 0.00 | 0.00 | 95 | 1012.6 |
| 20260905073519 | 77 | 101 | 5.0 | 5.0 | 0.00 | 0.00 | 0.00 | 95 | 1012.6 |
| 20260905072535 | 77 | 91 | 4.0 | 5.0 | 0.00 | 0.00 | 0.00 | 95 | 1012.6 |
| 20260905071530 | 77 | 94 | 4.0 | 4.0 | 0.00 | 0.00 | 0.00 | 95 | 1012.6 |
| 20260905070525 | 77 | 95 | 4.0 | 5.0 | 0.00 | 0.00 | 0.00 | 95 | 1012.6 |
| 20260905065520 | 77 | 91 | 4.0 | 5.0 | 0.00 | 0.00 | 0.00 | 95 | 1012.5 |
| 20260905064536 | 77 | 105 | 4.0 | 5.0 | 0.00 | 0.00 | 0.00 | 95 | 1012.6 |
| 20260905063531 | 78 | 100 | 4.0 | 5.0 | 0.00 | 0.00 | 0.00 | 95 | 1012.7 |
| 20260905062526 | 78 | 95 | 4.0 | 5.0 | 0.00 | 0.00 | 0.00 | 95 | 1012.8 |
| 20260905061521 | 78 | 98 | 4.0 | 5.0 | 0.00 | 0.00 | 0.00 | 95 | 1012.9 |
| 20260905060516 | 78 | 97 | 4.0 | 5.0 | 0.00 | 0.00 | 0.00 | 94 | 1013.1 |
| 20260905055532 | 78 | 84 | 5.0 | 5.0 | 0.00 | 0.00 | 0.00 | 94 | 1013.4 |
| 20260905054527 | 78 | 94 | 4.0 | 5.0 | 0.00 | 0.00 | 0.00 | 94 | 1013.5 |
| 20260905053522 | 78 | 93 | 4.0 | 5.0 | 0.00 | 0.00 | 0.00 | 94 | 1013.4 |
| 20260905052517 | 78 | 106 | 5.0 | 5.0 | 0.00 | 0.00 | 0.00 | 94 | 1013.5 |
| 20260905051532 | 79 | 93 | 4.0 | 5.0 | 0.00 | 0.00 | 0.00 | 93 | 1013.8 |
| 20260905050527 | 79 | 96 | 4.0 | 5.0 | 0.00 | 0.00 | 0.00 | 93 | 1013.9 |
| 20260905045523 | 79 | 97 | 4.0 | 5.0 | 0.00 | 0.00 | 0.00 | 92 | 1014.1 |
| 20260905044518 | 79 | 94 | 4.0 | 5.0 | 0.00 | 0.00 | 0.00 | 92 | 1014.5 |
| 20260905043533 | 80 | 95 | 4.0 | 4.0 | 0.00 | 0.00 | 0.00 | 92 | 1014.5 |
| 20260905042528 | 80 | 97 | 4.0 | 5.0 | 0.00 | 0.00 | 0.00 | 91 | 1014.6 |
| 20260905041523 | 80 | 89 | 5.0 | 5.0 | 0.00 | 0.00 | 0.00 | 91 | 1014.6 |
| 20260905040519 | 80 | 93 | 4.0 | 5.0 | 0.00 | 0.00 | 0.00 | 90 | 1014.6 |
| 20260905035534 | 81 | 97 | 4.0 | 7.0 | 0.00 | 0.00 | 0.00 | 90 | 1014.5 |
| 20260905034529 | 81 | 100 | 5.0 | 6.0 | 0.00 | 0.00 | 0.00 | 90 | 1014.3 |
| 20260905033524 | 81 | 101 | 5.0 | 5.0 | 0.00 | 0.00 | 0.00 | 90 | 1014.2 |
| 20260905032520 | 81 | 106 | 5.0 | 10.0 | 0.00 | 0.00 | 0.00 | 90 | 1014.3 |
| 20260905031535 | 80 | 103 | 5.0 | 6.0 | 0.00 | 0.00 | 0.00 | 90 | 1014.3 |
| 20260905030530 | 80 | 101 | 4.0 | 5.0 | 0.00 | 0.00 | 0.00 | 89 | 1014.5 |
| 20260905025525 | 80 | 101 | 4.0 | 5.0 | 0.00 | 0.00 | 0.00 | 89 | 1014.5 |
| 20260905024520 | 81 | 100 | 4.0 | 5.0 | 0.00 | 0.00 | 0.00 | 89 | 1014.7 |
| 20260905023535 | 81 | 97 | 4.0 | 5.0 | 0.00 | 0.00 | 0.00 | 88 | 1014.8 |
| 20260905022530 | 81 | 100 | 4.0 | 5.0 | 0.00 | 0.00 | 0.00 | 88 | 1014.8 |
| 20260905021525 | 82 | 102 | 4.0 | 5.0 | 0.00 | 0.00 | 0.00 | 87 | 1015.0 |
| 20260905020520 | 82 | 106 | 5.0 | 7.0 | 0.00 | 0.00 | 0.00 | 86 | 1015.0 |
| 20260905015535 | 82 | 100 | 4.0 | 5.0 | 0.00 | 0.00 | 0.00 | 85 | 1015.0 |
| 20260905014530 | 82 | 114 | 5.0 | 10.0 | 0.00 | 0.00 | 0.00 | 85 | 1014.7 |
| 20260905013525 | 82 | 106 | 5.0 | 7.0 | 0.00 | 0.00 | 0.00 | 85 | 1014.4 |
| 20260905012520 | 82 | 107 | 5.0 | 7.0 | 0.00 | 0.00 | 0.00 | 85 | 1014.3 |
| 20260905011535 | 82 | 116 | 5.0 | 8.0 | 0.00 | 0.00 | 0.00 | 84 | 1014.2 |
| 20260905010531 | 82 | 113 | 5.0 | 10.0 | 0.00 | 0.00 | 0.00 | 85 | 1014.4 |
| 20260905005525 | 83 | 111 | 5.0 | 7.0 | 0.00 | 0.00 | 0.00 | 84 | 1014.2 |
| 20260905004520 | 83 | 123 | 6.0 | 10.0 | 0.00 | 0.00 | 0.00 | 84 | 1014.3 |